Location: Carnières
(50.1682°N, 3.3474°E)
Time: 06:11:28
(UTC+00:00)

MOZ.5/SAFIR/RUBIN 5/SL-8 - Pass Details

Date: 14 August 2024
Orbit: 671 x 698 km, 98.3° (Epoch: 08 September)

Event Time Altitude Azimuth Distance (km) Brightness Sun altitude
Exits shadow 01:17:56 62° 172° (S) 782 3.7 -22.8°
Maximum altitude 01:18:44 86° 257° (WSW) 704 3.7 -22.8°
Drops below altitude 10° 01:23:30 10° 345° (NNW) 2,170 7.0 -22.5°
Sets 01:25:46 0° 346° (NNW) 3,095 7.9 -22.3°
